Weather History for KRFD - November, 2014

Change the Weather History Date:

Tuesday, November 25, 2014

  Actual Average Record
Temperature  
Mean Temperature 17 °F 34 °F  
Max Temperature 23 °F 42 °F 64 °F (1915)
Min Temperature 10 °F 26 °F -4 °F (1950)
Degree Days  
Heating Degree Days 48 31  
Month to date heating degree days 790 619  
Since 1 July heating degree days 1352 1172  
Cooling Degree Days 0 0  
Month to date cooling degree days 0 0  
Year to date cooling degree days 729 820  
Moisture  
Dew Point 13 °F    
Average Humidity 80    
Maximum Humidity 92    
Minimum Humidity 68    
Precipitation  
Precipitation T in 0.08 in 0.93 in (1906)
Month to date precipitation 1.63 2.17  
Year to date precipitation 32.57 33.85  
Snow  
Snow 0.30 in 0.10 in 3.30 in (1977)
Month to date snowfall 3.5 1.0  
Since 1 July snowfall 3.6 1.1  
Since 1 September snowfall 3.6 1.1  
Snow Depth 0.00 in    
Sea Level Pressure  
Sea Level Pressure 30.08 in    
Wind  
Wind Speed 8 mph (West)    
Max Wind Speed 16 mph    
Max Gust Speed 25 mph    
Visibility 8 miles    
Events Snow    
T = Trace of Precipitation, MM = Missing Value Source: NWS Daily Summary

Daily Weather History Graph

Daily Weather History Graph

Search for Another Location

Airport or City:

Trip Planner

Search our weather history database for the weather conditions in past years. The results will help you decide how hot, cold, wet, or windy it might be!

Date:

Astronomy

Nov. 25, 2014 Rise Set
Actual Time 6:58 AM CST 4:27 PM CST
Civil Twilight 6:27 AM CST 4:58 PM CST
Nautical Twilight 5:53 AM CST 5:33 PM CST
Astronomical Twilight 5:19 AM CST 6:06 PM CST
Moon 9:43 AM CST (11/25) 7:53 PM CST (11/25)
Length of Visible Light 10h 30m
Length of Day
9h 28m
Waxing Crescent, 13% of the Moon is Illuminated
Nov 25
Waxing Crescent
Nov 29
First Quarter
Dec 6
Full
Dec 14
Last Quarter
Dec 21
New

Hourly Weather History & Observations

Time (CST) Temp. Windchill Dew Point Humidity Pressure Visibility Wind Dir Wind Speed Gust Speed Precip Events Conditions
12:09 AM 21.9 °F 11.7 °F 16.0 °F 78% 29.85 in 6.0 mi West 9.2 mph - 0.01 in Snow Light Snow
12:54 AM 21.0 °F 8.6 °F 15.1 °F 78% 29.90 in 5.0 mi West 12.7 mph - 0.01 in Snow Light Snow
1:54 AM 21.0 °F 8.6 °F 14.0 °F 74% 29.93 in 6.0 mi WNW 12.7 mph - 0.00 in Snow Light Snow
2:16 AM 19.9 °F 5.7 °F 14.0 °F 78% 29.91 in 2.0 mi West 16.1 mph - 0.00 in Snow Light Snow
2:20 AM 19.9 °F 6.2 °F 14.0 °F 78% 29.91 in 1.5 mi West 15.0 mph - 0.00 in Snow Light Snow
2:24 AM 19.9 °F 7.3 °F 15.1 °F 81% 29.91 in 2.0 mi West 12.7 mph 20.7 mph 0.00 in Snow Light Snow
2:54 AM 19.9 °F 7.3 °F 15.1 °F 81% 29.95 in 2.0 mi West 12.7 mph - 0.00 in Snow Light Snow
3:03 AM 19.9 °F 6.7 °F 15.1 °F 81% 29.92 in 2.0 mi West 13.8 mph - 0.00 in Snow Light Snow
3:22 AM 19.9 °F 7.3 °F 15.1 °F 81% 29.92 in 8.0 mi West 12.7 mph - 0.00 in Snow Light Snow
3:54 AM 19.9 °F 8.6 °F 14.0 °F 78% 29.98 in 8.0 mi West 10.4 mph - 0.00 in   Overcast
4:54 AM 19.9 °F 7.9 °F 14.0 °F 78% 30.00 in 10.0 mi West 11.5 mph - N/A   Overcast
5:11 AM 19.9 °F 8.6 °F 14.0 °F 78% 29.98 in 10.0 mi West 10.4 mph - N/A   Overcast
5:24 AM 19.9 °F 7.9 °F 14.0 °F 78% 29.99 in 9.0 mi West 11.5 mph - 0.00 in Snow Light Snow
5:54 AM 19.9 °F 8.6 °F 14.0 °F 78% 30.04 in 9.0 mi West 10.4 mph - 0.00 in Snow Light Snow
6:15 AM 19.9 °F 8.6 °F 14.0 °F 78% 30.02 in 10.0 mi West 10.4 mph - 0.00 in   Overcast
6:54 AM 19.0 °F 7.5 °F 12.0 °F 74% 30.07 in 10.0 mi West 10.4 mph - 0.00 in   Scattered Clouds
7:54 AM 18.0 °F 6.1 °F 12.0 °F 78% 30.10 in 10.0 mi West 10.4 mph - N/A   Scattered Clouds
8:54 AM 19.0 °F 9.0 °F 12.0 °F 74% 30.13 in 10.0 mi West 8.1 mph - N/A   Partly Cloudy
9:54 AM 19.9 °F 10.1 °F 12.9 °F 74% 30.15 in 10.0 mi WNW 8.1 mph - N/A   Partly Cloudy
10:54 AM 21.0 °F 12.4 °F 14.0 °F 74% 30.15 in 10.0 mi WNW 6.9 mph - N/A   Partly Cloudy
11:54 AM 21.9 °F 12.5 °F 14.0 °F 72% 30.15 in 10.0 mi WSW 8.1 mph - N/A   Partly Cloudy
12:54 PM 23.0 °F 13.1 °F 15.1 °F 72% 30.16 in 10.0 mi WSW 9.2 mph - N/A   Scattered Clouds
1:54 PM 21.9 °F 12.5 °F 14.0 °F 72% 30.17 in 10.0 mi WSW 8.1 mph - N/A   Partly Cloudy
2:54 PM 21.9 °F 11.7 °F 14.0 °F 72% 30.19 in 10.0 mi SW 9.2 mph - N/A   Scattered Clouds
3:54 PM 21.0 °F 12.4 °F 12.9 °F 71% 30.20 in 10.0 mi WSW 6.9 mph - N/A   Partly Cloudy
4:54 PM 19.0 °F 13.9 °F 12.9 °F 77% 30.20 in 10.0 mi WSW 3.5 mph - N/A   Clear
5:54 PM 17.1 °F 10.0 °F 12.9 °F 84% 30.20 in 10.0 mi South 4.6 mph - N/A   Clear
6:54 PM 16.0 °F 10.4 °F 12.0 °F 84% 30.21 in 10.0 mi South 3.5 mph - N/A   Clear
7:54 PM 14.0 °F 6.5 °F 10.0 °F 84% 30.22 in 10.0 mi South 4.6 mph - N/A   Clear
8:54 PM 14.0 °F 6.5 °F 10.0 °F 84% 30.23 in 8.0 mi SSE 4.6 mph - N/A   Clear
9:54 PM 14.0 °F 6.5 °F 10.0 °F 84% 30.22 in 8.0 mi SSE 4.6 mph - N/A   Clear
10:54 PM 10.9 °F - 8.1 °F 88% 30.23 in 8.0 mi Calm Calm - N/A   Clear
11:54 PM 10.0 °F - 7.0 °F 87% 30.24 in 8.0 mi Calm Calm - N/A   Clear